Miscellaneous Local Product
Issued by NWS Hastings, NE

Home | Current Version | Previous Version | Text Only | Print | Product List | Glossary Off
Versions: 1 2 3 4 5 6 7 8 9 10 11 12 13 14 15 16 17 18 19 20 21 22 23 24 25 26 27 28 29 30 31 32 33 34 35 36 37 38 39 40 41 42 43 44 45 46 47 48 49 50

881
AXUS43 KGID 022002
MISGRI

GID CWA HOURLY WEATHER ROUNDUP
NATIONAL WEATHER SERVICE HASTINGS NE
300 PM CDT MON MAY 02 2016

NOTE: "FAIR" INDICATES FEW OR NO CLOUDS BELOW 12,000 FEET WITH NO
SIGNIFICANT WEATHER AND/OR OBSTRUCTIONS TO VISIBILITY.

...SOUTH CENTRAL NEBRASKA...

CITY           SKY/WX    TMP DP  RH WIND       PRES   REMARKS
GRAND ISLAND   CLOUDY    58  34  40 CALM      30.11F
HASTINGS       PTSUNNY   58  37  45 N8        30.11F
KEARNEY        SUNNY     57  36  44 SE5       30.12F
ORD            CLOUDY    59  35  40 N3        30.08F
YORK           PTSUNNY   59  37  44 NW3       30.11F
AURORA         CLOUDY    59  36  43 N3        30.11F
LEXINGTON      SUNNY     59  36  41 W5        30.11F
HOLDREGE       SUNNY     57  35  42 CALM      30.12F
HEBRON         CLOUDY    60  37  43 W6        30.12S

...NEBRASKA PANHANDLE...

CITY           SKY/WX    TMP DP  RH WIND       PRES   REMARKS
CHADRON        CLOUDY    63  31  30 W13       30.07F
ALLIANCE       MOSUNNY   61  31  32 NW16      30.08F
SCOTTSBLUFF    SUNNY     61  30  31 W13G21    30.11F
SIDNEY         CLOUDY    56  30  37 NW9       30.15F

...WESTERN AND NORTH CENTRAL NEBRASKA...

CITY           SKY/WX    TMP DP  RH WIND       PRES   REMARKS
VALENTINE      MOSUNNY   62  29  28 NW8G17    30.06F
AINSWORTH      CLOUDY    60  33  36 NW3       30.08S
ONEILL         CLOUDY    60  31  33 SW7       30.09F
BROKEN BOW     PTSUNNY   59  36  42 W8        30.09F
IMPERIAL       MOSUNNY   60  33  36 NW8       30.12F
NORTH PLATTE   MOSUNNY   60  34  37 W9        30.09F
MCCOOK         SUNNY     62  35  36 MISG      30.11F

...EASTERN NEBRASKA...

CITY           SKY/WX    TMP DP  RH WIND       PRES   REMARKS
NORFOLK        MOSUNNY   61  35  37 VRB3      30.08F
SO SIOUX CITY  SUNNY     66  35  31 CALM      30.08F
TEKAMAH        CLOUDY    62  39  42 VRB3      30.09S
COLUMBUS       MOSUNNY   61  36  39 W9        30.11S
ALBION         CLOUDY    59  34  38 CALM      30.09F
OMAHA EPPLEY   PTSUNNY   64  39  39 VRB3      30.09F
MILLARD        PTSUNNY   63  39  40 NW3       30.09F
LINCOLN        PTSUNNY   64  36  35 CALM      30.10F
NEBRASKA CITY  PTSUNNY   59  38  46 NE5       30.10F
BEATRICE       PTSUNNY   60  41  50 N9        30.10F
FALLS CITY     CLOUDY    60  46  59 VRB5      30.09F

...NORTHERN KANSAS...

CITY           SKY/WX    TMP DP  RH WIND       PRES   REMARKS
GOODLAND       SUNNY     60  31  33 NW10      30.14F
HILL CITY      SUNNY     64  34  32 NW8       30.13F
NORTON         CLEAR     61  34  36 W7        30.11F
PHILLIPSBURG   SUNNY     63  37  39 CALM      30.12F
SMITH CENTER   SUNNY     61  39  44 N3        30.12F
BELOIT         CLOUDY    59  34  38 W6        30.11F
HAYS           MOSUNNY   61  36  39 NW10      30.13F
RUSSELL        MOSUNNY   61  37  41 N9        30.11F
CONCORDIA      PTSUNNY   61  38  42 NE6       30.11F
SALINA         PTSUNNY   66  40  38 NW9G18    30.13F
TOPEKA         CLOUDY    58  45  62 N8        30.10F



USA.gov is the U.S. government's official web portal to all federal, state and local government web resources and services.